STARLINK-32500, 61935

Orbit data source: Space-Track

STARLINK-32500, 61935 is a payload satellite owned by SpaceX/Seattle (US) in LEO that was launched on Mon, 11 Nov 2024 UTC via an FALCON 9 launch vehicle from the Air Force Eastern Test Range (AFETR). Payload-class satellites include a variety of spacecraft equipped with specific instruments for various scientific and technological missions. These include communications satellites like Starlink; space stations such as the ISS; scientific satellites like the Hubble; Earth observation satellites from companies like Planet Labs, Umbra, and HawkEye 360; GPS; miniature CubeSats for education and research; and military/defense satellites.

Loading next visibility...
Identifier
61935, 2024-207Z
Orbit
LEO
Country
Flag of USUS
Related business
Manufacturer
SpaceX/Seattle
Mission
Operational Commercial Communications
Bus & Motor
STARLINK V2M, Unknown motor
Mass
730 kg wet, ~700 kg dry
Launch date (UTC)
2024-11-11 (1 year ago)
Launch vehicle
FALCON 9
Launch site
Air Force Eastern Test Range (AFETR)
Object type
Payload
Rocket body
Debris
Shape & HBR
Box + 2 Pan, 17.7 m
Radar Cross Section
33.884 m², Large (>1 m²)

Expand to show TLE details & history
Last TLE update: 9 hours ago

TLE from 9 hours ago
0 STARLINK-32500
1 61935U 24207Z   26073.22418060  .00029690  00000-0  10837-2 0  9997
2 61935  43.0022 259.7568 0000513 277.2650  82.8143 15.27592591 75371
Epoch: 2026-03-14T05:22Z
TLE epoch observation values (Epoch: 2026-03-14T05:22:49.203Z)
Latitude
-0.00006°
Longitude
7.20329°
Altitude
482.743 km
Speed
7.626 km/s
True Right ascension
17h 19m 01s
True Declination
0° 00' 00"
Sunlit
Object was in daylight at epoch
Visualization orbit readout
Latitude
Unknown
Longitude
Unknown
Altitude
Unknown
Speed
Unknown
Apparent Right ascension
Unknown
Apparent Declination
Unknown
Sunlit
N/A
Visualization observer readout
Local Sidereal Time
19:15:39
Azimuth
Unknown
Elevation
Unknown
Doppler factor
Unknown
Orbital elements
Apogee altitude
485.308 km
Perigee altitude
484.604 km
Semi-major axis
6,863.093 km
Eccentricity
0.00005
Inclination
43.0022°
RAAN
259.7568°
Arg. of periapsis
277.265°
True anomaly
82.82013°
Mean anomaly
82.8143°
Eccentric anomaly
82.81722°
Mean motion
3.81736 °/min
Orbital period
94.31 mins
BSTAR
0.0010837
Loading maneuver chart data...
Computing Atmospheric mass density...
Loading historical data...
Loading historical data...
Loading historical data...
Loading historical data...
Loading historical data...
Loading historical data...
Loading historical data...

Documentation

Showing up to 5 results
|